Stations météo

réclame
Mon MeteoGroup
Ouessant, France (7100): Température de l'air & dewpoint: 15.06.2018 12:00:00 - 21.06.2018 12:00:00 (CEST)Ouessant, France (7100): Vitesse du vent & gusts: 15.06.2018 12:00:00 - 21.06.2018 12:00:00 (CEST)Ouessant, France (7100): Direction du vent: 15.06.2018 12:00:00 - 21.06.2018 12:00:00 (CEST)Ouessant, France (7100): reduced air pressure: 15.06.2018 12:00:00 - 21.06.2018 12:00:00 (CEST)Ouessant, France (7100): visibility: 15.06.2018 12:00:00 - 21.06.2018 12:00:00 (CEST)Ouessant, France (7100): Quantités de précipitations: 15.06.2018 12:00:00 - 21.06.2018 12:00:00 (CEST)
Date & Time tt [°C] td [°C] ff [km/h] ff [knt] fx [km/h] fx [knt] dd ppp [hPa] vv [km] rr [mm]
21.06.2018 12:00:00 15,5 10,5 31 17 41 22 NNE 1026,9 - 0,0
21.06.2018 11:00:00 15,0 10,8 31 17 46 25 NNE 1026,9 20 0,0
21.06.2018 10:00:00 14,4 10,6 29 16 41 22 NNE 1026,5 - 0,0
21.06.2018 09:00:00 13,9 10,9 28 15 40 21 NNE 1026,3 - 0,0
21.06.2018 08:00:00 13,0 11,1 30 16 48 26 N 1025,7 20 0,0
21.06.2018 07:00:00 12,8 11,2 36 19 53 29 N 1025,1 - 0,0
21.06.2018 06:00:00 12,7 11,4 33 18 48 26 N 1024,6 - 0,0
21.06.2018 05:00:00 12,8 11,5 30 16 46 25 N 1024,4 20 0,0
21.06.2018 04:00:00 12,9 12,0 26 14 42 23 N 1024,1 - 0,0
21.06.2018 03:00:00 13,5 13,0 27 15 38 21 N 1024,2 - 0,0
21.06.2018 02:00:00 13,8 13,2 21 11 36 19 N 1024,1 15 0,0
21.06.2018 01:00:00 13,6 13,3 21 11 32 17 N 1024,0 - 0,0
21.06.2018 00:00:00 13,8 13,6 24 13 36 19 NNW 1024,0 - 0,0
20.06.2018 23:00:00 14,3 14,1 26 14 39 21 NNW 1023,8 - 0,0
20.06.2018 22:00:00 14,6 14,4 21 12 31 17 NNW 1023,0 - 0,0
20.06.2018 21:00:00 14,4 14,1 21 11 27 14 NNW 1022,6 - 0,0
20.06.2018 20:00:00 14,5 14,2 15 8 25 13 NNW 1022,5 0,1 0,0
20.06.2018 19:00:00 14,5 14,0 19 10 24 13 NNW 1022,5 - 0,0
20.06.2018 18:00:00 14,8 14,2 17 9 24 13 N 1022,5 - 0,0
20.06.2018 17:00:00 15,5 14,5 19 10 29 16 N 1022,4 0,2 0,0
20.06.2018 16:00:00 15,7 14,2 18 10 23 12 N 1022,5 - 0,0
20.06.2018 15:00:00 15,9 14,1 11 6 18 10 N 1022,7 - 0,0
20.06.2018 14:00:00 15,6 14,1 11 6 17 9 N 1022,9 0,3 0,0
20.06.2018 13:00:00 15,3 14,3 11 6 19 10 N 1023,0 - 0,0
20.06.2018 12:00:00 14,9 14,6 8 4 13 7 NNE 1023,1 - 0,0
20.06.2018 11:00:00 14,4 14,2 8 4 11 6 NNE 1023,1 - 0,0
20.06.2018 10:00:00 13,9 13,7 8 4 11 6 ENE 1023,1 - 0,0
20.06.2018 09:00:00 13,6 13,4 6 4 12 6 NNE 1023,1 - 0,0
20.06.2018 08:00:00 13,2 13,0 8 5 14 7 N 1023,0 - 0,0
20.06.2018 07:00:00 13,2 13,0 4 2 11 6 N 1022,8 - 0,0
20.06.2018 06:00:00 13,1 12,8 7 4 14 8 N 1022,8 - 0,0
20.06.2018 05:00:00 13,4 13,1 7 4 13 7 ENE 1022,9 0,2 0,2
20.06.2018 04:00:00 13,6 13,3 8 4 15 8 NE 1023,1 - 0,0
20.06.2018 03:00:00 13,9 13,6 11 6 15 8 ENE 1023,3 - 0,0
20.06.2018 02:00:00 14,0 13,5 11 6 14 8 ENE 1023,7 3,0 0,0
20.06.2018 01:00:00 14,2 13,6 7 4 10 5 NE 1024,1 - 0,0
20.06.2018 00:00:00 14,5 13,9 5 3 13 7 N 1024,4 - 0,0
19.06.2018 23:00:00 14,6 14,0 12 6 17 9 NNW 1024,4 10 0,0
19.06.2018 22:00:00 15,0 13,9 13 7 16 9 NW 1024,1 - 0,0
19.06.2018 21:00:00 16,9 14,4 13 7 17 9 W 1024,0 - 0,0
19.06.2018 20:00:00 19,1 14,8 10 5 21 11 WSW 1024,1 20 0,0
19.06.2018 19:00:00 18,4 15,3 13 7 20 11 WSW 1024,6 - 0,0
19.06.2018 18:00:00 17,9 15,7 10 6 18 10 SSW 1025,4 - 0,0
19.06.2018 17:00:00 17,9 15,9 11 6 18 10 SSW 1025,8 6 0,0
19.06.2018 16:00:00 17,5 15,5 11 6 18 10 SW 1025,9 - 0,0
19.06.2018 15:00:00 17,7 15,9 10 5 17 9 SW 1026,2 - 0,0
19.06.2018 14:00:00 17,1 15,8 3 2 13 7 E 1026,3 6 0,0
19.06.2018 13:00:00 16,5 15,9 9 5 16 8 WNW 1026,5 - 0,0
19.06.2018 12:00:00 16,4 15,8 10 5 16 8 WNW 1026,4 - 0,0
19.06.2018 11:00:00 16,4 15,9 11 6 16 8 W 1026,5 6 0,0
19.06.2018 10:00:00 16,2 15,9 8 5 11 6 W 1026,6 - 0,0
19.06.2018 09:00:00 15,9 15,7 6 3 13 7 WSW 1026,5 - 0,0
19.06.2018 08:00:00 15,5 15,3 8 5 17 9 W 1026,3 15 0,0
19.06.2018 07:00:00 15,3 15,1 14 7 18 10 W 1026,0 - 0,0
19.06.2018 06:00:00 14,9 14,7 13 7 19 10 W 1025,8 3,0 0,0
19.06.2018 05:00:00 15,0 14,8 11 6 19 11 WSW 1025,8 5 0,0
19.06.2018 04:00:00 15,2 15,0 13 7 23 13 WSW 1025,8 - 0,0
19.06.2018 03:00:00 15,1 14,9 18 10 29 16 W 1026,1 - 0,2
19.06.2018 02:00:00 15,3 15,1 19 10 28 15 W 1026,3 2,0 0,0
19.06.2018 01:00:00 15,1 14,9 19 10 27 15 WSW 1026,4 - 0,0
19.06.2018 00:00:00 14,7 14,4 16 9 23 13 WSW 1026,8 - 0,0
18.06.2018 23:00:00 14,7 14,4 17 9 24 13 WSW 1026,6 0,5 0,0
18.06.2018 22:00:00 15,0 14,7 16 9 32 17 WSW 1026,2 - 0,0
18.06.2018 21:00:00 15,4 14,9 18 10 30 16 WSW 1025,7 - 0,0
18.06.2018 20:00:00 15,9 15,3 22 12 34 19 W 1025,6 3,0 0,0
18.06.2018 19:00:00 16,0 15,2 23 12 33 18 W 1025,5 - 0,0
18.06.2018 18:00:00 16,5 15,5 23 12 33 18 WSW 1025,3 - 0,0
18.06.2018 17:00:00 16,9 15,8 24 13 39 21 WSW 1025,5 2,0 0,0
18.06.2018 16:00:00 17,0 15,0 28 15 37 20 SW 1025,4 - 0,0
18.06.2018 15:00:00 16,6 14,6 29 15 - - SW 1025,3 - 0,0
18.06.2018 14:00:00 17,9 15,3 22 12 30 16 WSW 1024,9 8 0,0
18.06.2018 13:00:00 16,4 15,8 19 10 - - W 1025,1 - 0,0
18.06.2018 12:00:00 15,8 15,5 21 11 30 16 W 1025,0 - 0,0
18.06.2018 11:00:00 14,6 14,0 15 8 26 14 WNW 1025,0 0,9 0,0
18.06.2018 10:00:00 15,4 13,4 16 9 27 15 WNW 1024,5 - 0,0
18.06.2018 09:00:00 14,3 13,0 21 11 31 17 WNW 1023,8 - 0,0
18.06.2018 08:00:00 14,0 12,6 19 10 37 20 W 1023,4 15 0,0
18.06.2018 07:00:00 14,1 12,5 28 15 39 21 NW 1022,6 - 0,0
18.06.2018 06:00:00 14,1 13,6 28 15 37 20 W 1022,1 - 0,0
18.06.2018 05:00:00 14,0 13,4 23 13 34 18 W 1021,9 - 0,0
18.06.2018 04:00:00 13,8 13,2 26 14 35 19 W 1021,9 - 0,0
18.06.2018 03:00:00 14,1 13,6 27 15 37 20 W 1022,0 - 0,0
18.06.2018 02:00:00 13,9 13,6 22 12 30 16 W 1021,9 2,0 0,0
18.06.2018 01:00:00 14,1 13,8 19 11 31 17 W 1021,9 - 0,0
18.06.2018 00:00:00 14,6 14,3 24 13 34 18 W 1021,7 - 0,2
17.06.2018 23:00:00 15,0 14,5 22 12 29 16 W 1021,2 2,0 0,0
17.06.2018 22:00:00 15,1 14,6 22 12 34 19 W 1020,8 - 0,0
17.06.2018 21:00:00 15,1 14,6 25 14 42 23 W 1020,6 - 0,0
17.06.2018 20:00:00 15,6 15,3 30 16 40 22 W 1020,0 0,9 0,0
17.06.2018 19:00:00 15,6 15,1 26 14 39 21 WSW 1019,6 - 0,0
17.06.2018 18:00:00 15,9 15,3 25 13 38 20 WSW 1019,7 - 0,0
17.06.2018 17:00:00 16,0 15,2 28 15 45 25 WSW 1019,6 0,9 0,0
17.06.2018 16:00:00 16,1 15,5 26 14 46 25 WSW 1019,2 - 0,2
17.06.2018 15:00:00 15,7 15,4 28 15 45 25 SW 1019,2 - 0,0
17.06.2018 14:00:00 15,0 14,7 32 17 47 26 SW 1019,2 0,2 0,0
17.06.2018 13:00:00 14,7 14,4 31 17 44 24 SSW 1019,4 - 0,0
17.06.2018 12:00:00 14,1 13,6 33 18 46 25 SSW 1019,5 - 0,4
17.06.2018 11:00:00 13,9 12,9 31 17 50 27 SW 1019,7 2,0 0,2
17.06.2018 10:00:00 15,2 12,5 30 16 45 24 SW 1019,7 - 0,0
17.06.2018 09:00:00 15,0 11,4 28 15 41 22 SW 1019,6 - 0,0
17.06.2018 08:00:00 14,0 11,3 24 13 35 19 SW 1019,5 - 0,0
17.06.2018 07:00:00 13,7 10,3 25 13 35 19 WSW 1019,6 - 0,0
17.06.2018 06:00:00 13,6 10,6 24 13 35 19 WSW 1019,5 - 0,0
17.06.2018 05:00:00 13,4 10,6 18 10 29 16 WSW 1019,7 15 0,0
17.06.2018 04:00:00 13,3 10,1 21 11 29 15 W 1020,0 - 0,0
17.06.2018 03:00:00 13,4 11,3 19 11 28 15 W 1020,2 - 0,0
17.06.2018 02:00:00 13,5 9,7 19 10 29 16 WSW 1020,3 20 0,0
17.06.2018 01:00:00 13,4 10,4 22 12 30 16 W 1020,3 - 0,0
17.06.2018 00:00:00 13,5 10,7 20 11 31 17 W 1020,4 - 0,0
16.06.2018 23:00:00 13,7 11,0 20 11 29 16 W 1020,2 20 0,0
16.06.2018 22:00:00 13,7 10,9 25 13 32 18 W 1019,7 - 0,0
16.06.2018 21:00:00 14,3 11,1 22 12 27 15 W 1019,5 - 0,0
16.06.2018 20:00:00 14,8 10,8 22 12 31 17 W 1019,2 20 0,0
16.06.2018 19:00:00 15,5 11,3 23 12 34 18 W 1018,9 - 0,0
16.06.2018 18:00:00 15,7 11,3 23 13 33 18 W 1018,8 - 0,0
16.06.2018 17:00:00 16,5 11,6 26 14 37 20 WNW 1018,5 20 0,0
16.06.2018 16:00:00 17,6 11,6 27 14 39 21 WNW 1017,7 - 0,0
16.06.2018 15:00:00 17,1 12,4 27 15 39 21 WNW 1017,5 - 0,0
16.06.2018 14:00:00 16,0 12,9 22 12 38 21 WNW 1017,4 6 0,0
16.06.2018 13:00:00 15,7 14,9 22 12 37 20 WSW 1017,1 - 0,0
16.06.2018 12:00:00 14,4 13,9 22 12 41 22 SW 1016,9 - 0,2
16.06.2018 11:00:00 14,1 13,6 31 17 44 24 SSW 1016,5 6 0,2
16.06.2018 10:00:00 13,9 13,1 25 14 47 26 SW 1016,7 - 0,0
16.06.2018 09:00:00 14,3 12,2 35 19 48 26 SW 1016,4 - 0,0
16.06.2018 08:00:00 14,5 12,2 24 13 36 19 SW 1016,3 20 0,0
16.06.2018 07:00:00 13,9 12,1 23 13 36 19 SW 1016,1 - 0,0
16.06.2018 06:00:00 13,6 11,8 23 12 32 17 SW 1016,2 - 0,0
16.06.2018 05:00:00 13,2 11,1 22 12 32 17 SSW 1016,7 15 0,0
16.06.2018 04:00:00 12,9 11,0 19 11 26 14 SW 1017,3 - 0,0
16.06.2018 03:00:00 12,8 10,7 18 10 26 14 SW 1017,8 - 0,0
16.06.2018 02:00:00 13,3 10,8 18 10 29 15 WSW 1018,2 20 0,0
16.06.2018 01:00:00 12,3 10,5 18 10 21 11 SSW 1017,9 - 0,0
16.06.2018 00:00:00 12,4 9,2 16 8 23 12 SW 1018,7 - 0,0
15.06.2018 23:00:00 12,8 10,2 15 8 18 10 WSW 1018,9 20 0,0
15.06.2018 22:00:00 13,1 9,7 11 6 19 10 SW 1018,9 - 0,0
15.06.2018 21:00:00 15,7 9,4 14 8 20 11 WSW 1019,2 - 0,0
15.06.2018 20:00:00 16,4 10,9 16 9 24 13 W 1019,4 - 0,0
15.06.2018 19:00:00 17,1 10,5 15 8 22 12 WNW 1019,4 - 0,0
15.06.2018 18:00:00 16,5 10,3 14 8 28 15 W 1019,5 - 0,0
15.06.2018 17:00:00 17,0 11,5 17 9 27 15 WNW 1020,4 20 0,0
15.06.2018 16:00:00 17,4 11,7 16 9 29 15 WNW 1020,3 - 0,0
15.06.2018 15:00:00 16,6 10,4 18 10 26 14 W 1020,2 - 0,0
15.06.2018 14:00:00 17,4 10,3 13 7 21 11 NW 1020,0 18 0,0
15.06.2018 13:00:00 16,6 10,4 16 9 22 12 WNW 1020,4 - 0,0
15.06.2018 12:00:00 15,7 11,1 5 3 11 6 ESE 1020,0 - 0,0

tt = Température de l'air
td = dewpoint
ff = Vitesse du vent
fx = gusts
dd = Direction du vent
ppp = reduced air pressure
vv = visibility
rr = Quantités de précipitations

stations d'obs. à proximité